Erie, PA

12:13 AM EST on December 10, 2019 (GMT -0500)
Erie International

Weather History for KERI - November, 2019

Change the Weather History Date:

Saturday, November 16, 2019

  Actual Average Record
Temperature  
Mean Temperature 31 °F 43 °F  
Max Temperature 37 °F 50 °F 70 °F (1955)
Min Temperature 25 °F 37 °F 14 °F (1933)
Degree Days  
Heating Degree Days 34 22  
Month to date heating degree days 435 307  
Since 1 July heating degree days 708 810  
Cooling Degree Days 0 0  
Month to date cooling degree days 0 0  
Year to date cooling degree days 847 638  
Moisture  
Dew Point 16 °F    
Average Humidity 54    
Maximum Humidity 69    
Minimum Humidity 35    
Precipitation  
Precipitation 0.00 in 0.14 in 0.98 in (1927)
Month to date precipitation 1.63 2.08  
Year to date precipitation 35.12 36.57  
Snow  
Snow 0.00 in 0.30 in - ()
Month to date snowfall 7.9 3.0  
Since 1 July snowfall 7.9 3.2  
Since 1 September snowfall 7.9 3.2  
Snow Depth 1.00 in    
Sea Level Pressure  
Sea Level Pressure 30.42 in    
Wind  
Wind Speed 11 mph ()    
Max Wind Speed 21 mph    
Max Gust Speed 25 mph    
Visibility 10.0 miles    
Events      
T = Trace of Precipitation, MM = Missing Value Source: Averaged Metar Reports

Daily Weather History Graph

Daily Weather History Graph

Search for Another Location

Airport or City:

Astronomy

Nov. 16, 2019 Rise Set
Actual Time 7:11 AM EST 4:58 PM EST
Civil Twilight 6:41 AM EST 5:28 PM EST
Nautical Twilight 6:07 AM EST 6:02 PM EST
Astronomical Twilight 5:34 AM EST 6:35 PM EST
Moon 8:28 PM EST (11/16) 11:06 AM EST (11/16)
Length of Visible Light 10h 47m
Length of Day
9h 46m
Waning Gibbous, 82% of the Moon is Illuminated
Nov 16
Waning Gibbous
Nov 19
Last Quarter
Nov 26
New
Dec 4
First Quarter
Dec 12
Full

Hourly Weather History & Observations

Time (EST) Temp. Windchill Dew Point Humidity Pressure Visibility Wind Dir Wind Speed Gust Speed Precip Events Conditions
12:51 AM 35.1 °F 27.4 °F 23.0 °F 61% 30.40 in 10.0 mi NNE 10.4 mph - N/A   Partly Cloudy
1:51 AM 35.1 °F 26.9 °F 25.0 °F 67% 30.41 in 10.0 mi NE 11.5 mph - N/A   Mostly Cloudy
2:51 AM 34.0 °F 24.2 °F 24.1 °F 67% 30.42 in 10.0 mi NE 15.0 mph 23.0 mph N/A   Mostly Cloudy
3:20 AM 33.1 °F 21.9 °F 23.0 °F 66% 30.39 in 10.0 mi NE 18.4 mph - N/A   Overcast
3:41 AM 33.1 °F 23.0 °F 21.0 °F 61% 30.40 in 10.0 mi NE 15.0 mph - N/A   Overcast
3:51 AM 32.0 °F 20.5 °F 21.0 °F 64% 30.42 in 10.0 mi NE 18.4 mph 23.0 mph N/A   Overcast
4:51 AM 30.0 °F 20.0 °F 18.0 °F 61% 30.43 in 10.0 mi ENE 12.7 mph - N/A   Overcast
5:51 AM 28.9 °F 17.7 °F 12.9 °F 51% 30.45 in 10.0 mi ENE 15.0 mph - N/A   Overcast
6:51 AM 26.1 °F 17.6 °F 12.9 °F 58% 30.47 in 10.0 mi ENE 8.1 mph - N/A   Clear
7:51 AM 25.0 °F 14.8 °F 12.9 °F 60% 30.50 in 10.0 mi ENE 10.4 mph - N/A   Clear
8:51 AM 27.0 °F 18.0 °F 12.9 °F 56% 30.51 in 10.0 mi ENE 9.2 mph - N/A   Clear
9:51 AM 28.9 °F 20.4 °F 14.0 °F 54% 30.51 in 10.0 mi ENE 9.2 mph - N/A   Clear
10:51 AM 32.0 °F 23.6 °F 12.9 °F 45% 30.50 in 10.0 mi NE 10.4 mph - N/A   Clear
11:51 AM 35.1 °F 25.9 °F 10.0 °F 35% 30.48 in 10.0 mi ENE 13.8 mph - N/A   Clear
12:51 PM 36.0 °F 28.5 °F 12.0 °F 37% 30.44 in 10.0 mi ESE 10.4 mph - N/A   Clear
1:51 PM 35.1 °F 26.9 °F 12.9 °F 40% 30.41 in 10.0 mi NE 11.5 mph - N/A   Clear
2:51 PM 36.0 °F 28.0 °F 14.0 °F 41% 30.40 in 10.0 mi NE 11.5 mph - N/A   Clear
3:51 PM 35.1 °F 25.5 °F 17.1 °F 48% 30.40 in 10.0 mi NE 15.0 mph - N/A   Clear
4:51 PM 34.0 °F 25.0 °F 17.1 °F 50% 30.40 in 10.0 mi ENE 12.7 mph - N/A   Clear
5:51 PM 32.0 °F 22.5 °F 15.1 °F 50% 30.41 in 10.0 mi ENE 12.7 mph - N/A   Clear
6:51 PM 30.9 °F 22.2 °F 12.9 °F 47% 30.40 in 10.0 mi ENE 10.4 mph - N/A   Clear
7:51 PM 28.0 °F 20.8 °F 12.9 °F 53% 30.40 in 10.0 mi ENE 6.9 mph - N/A   Clear
8:51 PM 26.1 °F 16.8 °F 12.9 °F 58% 30.38 in 10.0 mi ENE 9.2 mph - N/A   Clear
9:51 PM 26.1 °F 17.6 °F 12.9 °F 58% 30.37 in 10.0 mi ENE 8.1 mph - N/A   Clear
10:51 PM 27.0 °F 18.7 °F 12.0 °F 53% 30.34 in 10.0 mi ENE 8.1 mph - N/A   Clear
11:51 PM 25.0 °F 20.7 °F 12.0 °F 58% 30.33 in 10.0 mi East 3.5 mph - N/A   Clear